Showing default

QIANFAN-28, 61561

Orbit data source: Space-Track

QIANFAN-28, 61561 is a Chinese payload satellite in LEO that was launched on Tue, 15 Oct 2024 UTC via a CHANG ZHENG 6A launch vehicle from the Taiyaun Space Center, China (TSC). Payloads include a variety of satellites, spacecraft, and rockets equipped with specific instruments for various scientific and technological missions. These include communications satellites like Starlink; space stations such as the ISS; scientific satellites like the Hubble; Earth observation satellites from companies like Planet Labs, Umbra, and HawkEye 360; GPS; miniature CubeSats for education and research; and military/defense satellites.

Loading next visibility...
QIANFAN-28 details
Identifier
61561, 2024-185K
Orbit
LEO
Last TLE update17 hours ago
Origin
Flag of CNYUANX (CN / PRC)
ManufacturerGESIH/SECM
MissionOperational Commercial Communications
Bus & MotorQIANFAN, Unknown motor
Mass300 kg wet, ~300 kg dry
Launch date (UTC)
2024-10-15 (4 months ago)
Launch vehicle
CHANG ZHENG 6A
Launch site
Taiyaun Space Center, China (TSC)
Object type
Payload
Rocket body
Debris
Shape & HBRBox + 1 Pan, 10 m
Radar Cross Section13.200 m², Large (>1 m²)

Expand to show TLE details & history

TLE from 17 hours ago
0 QIANFAN-28
1 61561U 24185K   25035.57483122  .00001865  00000-0  75963-3 0  9999
2 61561  88.9878 113.3548 0008015 212.7098 147.3601 14.27103431 25787
Epoch: 2025-02-04T13:47Z
Definitive object data (Epoch: 2025-02-04T13:47:45.417Z)
Latitude0.00001°
Longitude131.4374°
Altitude809.34 km
Speed7.446 km/s
True Right ascension07h 33m 25s
True Declination0° 00' 00"
Sunlit
Object was in full shadow at TLE epoch
Visualization TLE readout
Latitude25.93889°
Longitude131.84519°
Altitude810.451 km
Speed7.447 km/s
Apparent Right ascension04h 55m 31s
Apparent Declination-21° 49' 07"
Sunlit
Object is in full shadow
Visualization observer readout
Local Sidereal Time08:46:54
Azimuth232.546° WSW
Elevation8.075°
Doppler factor1
Orbital elements
Apogee altitude804.122 km
Perigee altitude792.618 km
Semi-major axis7,176.507 km
Eccentricity0.0008015
Inclination88.9878°
RAAN113.3548°
Arg. of periapsis212.7098°
True anomaly147.4096°
Mean anomaly147.3601°
Eccentric anomaly147.38485°
Mean motion3.57004 °/min
BSTAR0.00075963
Orbital period100.84 mins
Loading maneuver chart data...
Loading historical data...
Loading historical data...
Loading historical data...
Loading historical data...
Loading historical data...
Loading historical data...
Loading historical data...

QIANFAN-28 Visibility forecast

Observer location: undefined°, undefined

Span
Click to sort rows by Start time (UTC) header in descending order
Start Az.
Max El. time (UTC)
Max El. Az.
Max El.
End time (UTC)
End Az.
6 mins2025-02-05 06:45:41.061Z240.444° WSW2025-02-05 06:48:41.061Z276.914° WNW17.528°2025-02-05 06:51:41.061Z315.799° NNW
9 mins2025-02-05 17:18:41.061Z2.958° NNE2025-02-05 17:22:41.061Z132.846° SE44.794°2025-02-05 17:27:41.061Z180.278° SSW
7 mins2025-02-06 04:38:41.061Z127.225° SE2025-02-06 04:41:41.061Z75.588° E27.454°2025-02-06 04:45:41.061Z22.089° NNE
7 mins2025-02-06 06:19:41.061Z233.209° WSW2025-02-06 06:22:41.061Z284.627° WNW25.823°2025-02-06 06:26:41.061Z335.421° NNW
|